STARLINK-36720

Last updated on Thu Mar 05 2026 00:02:08 GMT+0000 (Coordinated Universal Time)

1 67655U 26022H 26063.06377529 .00220121 00000+0 14332-2 0 9999 2 67655 97.2833 96.7681 0001986 124.1506 235.9947 15.75282701 4666
UTC large
Height (km)
Speed (km/s)
/
Latitude / Longitude
Inclination (degrees)
Orbital Period (minutes)
Azimuth
Elevation
Range (km)
Doppler Factor

Next 0 passes for location: London (51.5072 / 0.1276)

Sorry there are no passes over London.